Simultaneous Nadir Overpasses (SNOs) Predictions

Prediction of SNOs between AQUA and NPP Satellite Orbit:

Table of predicted SNOs for the next 14.0 days since TLE Epoch: 2/5/2016
Index Date (AQUA) Time (AQUA) Lat,Lon (AQUA) SZA (AQUA ) Date (NPP) Time (NPP) Lat,Lon (NPP) SZA (NPP ) Distance(km) Time Diff (sec)
1 02/07/2016 13:16:15 -74.53, 36.14 65.44 02/07/2016 13:16:03 -74.53, 36.06 65.40 2.64 12
2 02/07/2016 14:05:13 75.92,-152.45 113.03 02/07/2016 14:06:18 75.91,-152.53 112.99 2.65 65
3 02/10/2016 04:43:32 73.61, -17.72 114.75 02/10/2016 04:42:27 73.61, -17.75 114.82 0.99 65
4 02/10/2016 05:32:31 -75.07, 153.40 66.85 02/10/2016 05:32:43 -75.06, 153.32 66.84 2.55 12
5 02/12/2016 20:59:46 74.30, 99.72 113.16 02/12/2016 20:59:05 74.30, 99.72 113.19 0.18 41
6 02/12/2016
